Time,TemperatureF,DewpointF,PressureIn,WindDirection,WindDirectionDegrees,WindSpeedMPH,WindSpeedGustMPH,Humidity,HourlyPrecipIn,Conditions,Clouds,dailyrainin,SoftwareType,DateUTC
2013-03-30 00:00:00,29.4,26.3,30.21,WSW,251,1.0,1.0,88,0.00,,,0.00,Wunderground v.1.15,2013-03-30 04:00:00,
2013-03-30 00:02:00,29.4,26.3,30.21,WSW,251,0.0,1.0,88,0.00,,,0.00,Wunderground v.1.15,2013-03-30 04:02:00,
2013-03-30 00:08:00,29.0,25.9,30.21,WSW,251,0.0,1.0,88,0.00,,,0.00,Wunderground v.1.15,2013-03-30 04:08:00,
2013-03-30 00:10:00,29.0,25.9,30.21,WSW,251,0.0,0.0,88,0.00,,,0.00,Wunderground v.1.15,2013-03-30 04:10:00,
2013-03-30 00:16:00,28.8,25.7,30.21,WSW,251,0.0,0.0,88,0.00,,,0.00,Wunderground v.1.15,2013-03-30 04:16:00,
2013-03-30 00:22:00,28.5,25.4,30.21,WSW,251,0.0,0.0,88,0.00,,,0.00,Wunderground v.1.15,2013-03-30 04:22:00,
2013-03-30 00:28:00,28.3,25.2,30.21,WSW,251,0.0,0.0,88,0.00,,,0.00,Wunderground v.1.15,2013-03-30 04:28:00,
2013-03-30 00:34:00,28.1,25.3,30.21,WSW,251,0.0,0.0,89,0.00,,,0.00,Wunderground v.1.15,2013-03-30 04:34:00,
2013-03-30 00:40:00,28.0,25.2,30.21,WSW,251,0.0,0.0,89,0.00,,,0.00,Wunderground v.1.15,2013-03-30 04:40:00,
2013-03-30 00:46:00,27.8,24.7,30.21,WSW,251,0.0,0.0,88,0.00,,,0.00,Wunderground v.1.15,2013-03-30 04:46:00,
2013-03-30 00:52:00,27.5,24.4,30.21,WSW,251,0.0,0.0,88,0.00,,,0.00,Wunderground v.1.15,2013-03-30 04:52:00,
2013-03-30 00:58:00,27.3,24.5,30.21,WSW,251,0.0,0.0,89,0.00,,,0.00,Wunderground v.1.15,2013-03-30 04:58:00,
2013-03-30 01:04:00,27.2,24.4,30.21,WSW,251,0.0,1.0,89,0.00,,,0.00,Wunderground v.1.15,2013-03-30 05:04:00,
2013-03-30 01:10:00,27.0,24.2,30.21,WSW,251,0.0,0.0,89,0.00,,,0.00,Wunderground v.1.15,2013-03-30 05:10:00,
2013-03-30 01:18:00,26.9,24.1,30.21,WSW,251,0.0,0.0,89,0.00,,,0.00,Wunderground v.1.15,2013-03-30 05:18:00,
2013-03-30 01:24:00,26.7,23.9,30.21,WSW,251,0.0,0.0,89,0.00,,,0.00,Wunderground v.1.15,2013-03-30 05:24:00,
2013-03-30 01:30:00,26.4,23.6,30.21,WSW,251,0.0,0.0,89,0.00,,,0.00,Wunderground v.1.15,2013-03-30 05:30:00,
2013-03-30 01:38:00,26.1,23.3,30.21,WSW,251,0.0,0.0,89,0.00,,,0.00,Wunderground v.1.15,2013-03-30 05:38:00,
2013-03-30 01:44:00,26.0,23.2,30.21,WSW,251,0.0,0.0,89,0.00,,,0.00,Wunderground v.1.15,2013-03-30 05:44:00,
2013-03-30 01:50:00,25.7,22.9,30.21,WSW,251,0.0,0.0,89,0.00,,,0.00,Wunderground v.1.15,2013-03-30 05:50:00,
2013-03-30 01:58:00,25.4,22.9,30.21,WSW,251,0.0,0.0,90,0.00,,,0.00,Wunderground v.1.15,2013-03-30 05:58:00,
2013-03-30 02:04:00,25.2,22.7,30.21,WSW,251,0.0,0.0,90,0.00,,,0.00,Wunderground v.1.15,2013-03-30 06:04:00,
2013-03-30 02:10:00,25.2,22.7,30.21,WSW,251,0.0,0.0,90,0.00,,,0.00,Wunderground v.1.15,2013-03-30 06:10:00,
2013-03-30 02:18:00,25.1,22.6,30.21,WSW,251,0.0,0.0,90,0.00,,,0.00,Wunderground v.1.15,2013-03-30 06:18:00,
2013-03-30 02:24:00,25.0,22.5,30.21,WSW,251,0.0,0.0,90,0.00,,,0.00,Wunderground v.1.15,2013-03-30 06:24:00,
2013-03-30 02:30:00,24.9,22.4,30.21,WSW,251,0.0,0.0,90,0.00,,,0.00,Wunderground v.1.15,2013-03-30 06:30:00,
2013-03-30 02:36:00,24.7,22.2,30.21,WSW,251,0.0,0.0,90,0.00,,,0.00,Wunderground v.1.15,2013-03-30 06:36:00,
2013-03-30 02:42:00,24.6,22.1,30.21,WSW,251,0.0,0.0,90,0.00,,,0.00,Wunderground v.1.15,2013-03-30 06:42:00,
2013-03-30 02:48:00,24.6,22.1,30.21,WSW,251,1.0,2.0,90,0.00,,,0.00,Wunderground v.1.15,2013-03-30 06:48:00,
2013-03-30 02:54:00,24.5,22.0,30.21,WSW,251,1.0,1.0,90,0.00,,,0.00,Wunderground v.1.15,2013-03-30 06:54:00,
2013-03-30 03:00:00,24.3,21.8,30.21,WSW,251,0.0,0.0,90,0.00,,,0.00,Wunderground v.1.15,2013-03-30 07:00:00,
2013-03-30 03:08:00,24.4,22.2,30.20,WSW,251,0.0,2.0,91,0.00,,,0.00,Wunderground v.1.15,2013-03-30 07:08:00,
2013-03-30 03:14:00,24.3,21.8,30.21,WSW,251,0.0,0.0,90,0.00,,,0.00,Wunderground v.1.15,2013-03-30 07:14:00,
2013-03-30 03:20:00,24.2,21.7,30.21,WSW,251,0.0,0.0,90,0.00,,,0.00,Wunderground v.1.15,2013-03-30 07:20:00,
2013-03-30 03:28:00,24.0,21.5,30.21,WSW,251,0.0,0.0,90,0.00,,,0.00,Wunderground v.1.15,2013-03-30 07:28:00,
2013-03-30 03:34:00,24.0,21.5,30.21,WSW,251,0.0,0.0,90,0.00,,,0.00,Wunderground v.1.15,2013-03-30 07:34:00,
2013-03-30 03:40:00,23.8,21.3,30.21,WSW,251,0.0,0.0,90,0.00,,,0.00,Wunderground v.1.15,2013-03-30 07:40:00,
2013-03-30 03:46:00,23.6,21.1,30.21,WSW,251,0.0,0.0,90,0.00,,,0.00,Wunderground v.1.15,2013-03-30 07:46:00,
2013-03-30 03:52:00,23.5,21.0,30.21,WSW,251,0.0,0.0,90,0.00,,,0.00,Wunderground v.1.15,2013-03-30 07:52:00,
2013-03-30 03:58:00,23.4,20.9,30.21,WSW,251,0.0,0.0,90,0.00,,,0.00,Wunderground v.1.15,2013-03-30 07:58:00,
2013-03-30 04:04:00,23.4,21.2,30.21,WSW,251,0.0,0.0,91,0.00,,,0.00,Wunderground v.1.15,2013-03-30 08:04:00,
2013-03-30 04:10:00,23.2,21.0,30.21,WSW,251,0.0,2.0,91,0.00,,,0.00,Wunderground v.1.15,2013-03-30 08:10:00,
2013-03-30 04:16:00,23.0,20.5,30.21,WSW,251,1.0,2.0,90,0.00,,,0.00,Wunderground v.1.15,2013-03-30 08:16:00,
2013-03-30 04:22:00,23.0,20.8,30.21,WSW,251,1.0,1.0,91,0.00,,,0.00,Wunderground v.1.15,2013-03-30 08:22:00,
2013-03-30 04:28:00,22.9,20.7,30.21,WSW,251,0.0,1.0,91,0.00,,,0.00,Wunderground v.1.15,2013-03-30 08:28:00,
2013-03-30 04:34:00,22.6,20.1,30.21,WSW,251,0.0,0.0,90,0.00,,,0.00,Wunderground v.1.15,2013-03-30 08:34:00,
2013-03-30 04:40:00,22.3,19.8,30.21,WSW,251,0.0,0.0,90,0.00,,,0.00,Wunderground v.1.15,2013-03-30 08:40:00,
2013-03-30 04:46:00,22.1,19.6,30.21,WSW,251,0.0,0.0,90,0.00,,,0.00,Wunderground v.1.15,2013-03-30 08:46:00,
2013-03-30 04:54:00,21.8,19.3,30.21,WSW,251,1.0,2.0,90,0.00,,,0.00,Wunderground v.1.15,2013-03-30 08:54:00,
2013-03-30 05:00:00,21.9,19.7,30.21,WSW,251,1.0,1.0,91,0.00,,,0.00,Wunderground v.1.15,2013-03-30 09:00:00,
2013-03-30 05:08:00,22.1,19.9,30.21,WSW,251,0.0,1.0,91,0.00,,,0.00,Wunderground v.1.15,2013-03-30 09:08:00,
2013-03-30 05:14:00,22.0,19.8,30.21,WSW,251,0.0,0.0,91,0.00,,,0.00,Wunderground v.1.15,2013-03-30 09:14:00,
2013-03-30 05:20:00,21.9,19.7,30.21,WSW,251,0.0,0.0,91,0.00,,,0.00,Wunderground v.1.15,2013-03-30 09:20:00,
2013-03-30 05:28:00,22.0,19.8,30.22,WSW,252,1.0,2.0,91,0.00,,,0.00,Wunderground v.1.15,2013-03-30 09:28:00,
2013-03-30 05:34:00,22.0,19.8,30.22,WSW,251,1.0,1.0,91,0.00,,,0.00,Wunderground v.1.15,2013-03-30 09:34:00,
2013-03-30 05:40:00,21.8,19.6,30.22,WSW,251,0.0,0.0,91,0.00,,,0.00,Wunderground v.1.15,2013-03-30 09:40:00,
2013-03-30 05:46:00,21.5,19.0,30.22,WSW,251,0.0,0.0,90,0.00,,,0.00,Wunderground v.1.15,2013-03-30 09:46:00,
2013-03-30 05:52:00,21.2,18.7,30.22,WSW,251,0.0,0.0,90,0.00,,,0.00,Wunderground v.1.15,2013-03-30 09:52:00,
2013-03-30 05:58:00,21.2,19.0,30.22,WSW,251,0.0,0.0,91,0.00,,,0.00,Wunderground v.1.15,2013-03-30 09:58:00,
2013-03-30 06:04:00,21.1,18.9,30.22,WSW,251,0.0,0.0,91,0.00,,,0.00,Wunderground v.1.15,2013-03-30 10:04:00,
2013-03-30 06:10:00,20.8,18.3,30.22,WSW,251,0.0,0.0,90,0.00,,,0.00,Wunderground v.1.15,2013-03-30 10:10:00,
2013-03-30 06:16:00,20.8,18.6,30.22,WSW,251,0.0,0.0,91,0.00,,,0.00,Wunderground v.1.15,2013-03-30 10:16:00,
2013-03-30 06:22:00,20.7,18.5,30.22,WSW,251,0.0,0.0,91,0.00,,,0.00,Wunderground v.1.15,2013-03-30 10:22:00,
2013-03-30 06:28:00,20.7,18.5,30.23,WSW,251,1.0,3.0,91,0.00,,,0.00,Wunderground v.1.15,2013-03-30 10:28:00,
2013-03-30 06:34:00,20.7,18.5,30.23,WSW,251,2.0,3.0,91,0.00,,,0.00,Wunderground v.1.15,2013-03-30 10:34:00,
2013-03-30 06:40:00,20.8,18.6,30.23,WSW,251,2.0,2.0,91,0.00,,,0.00,Wunderground v.1.15,2013-03-30 10:40:00,
2013-03-30 06:46:00,20.6,18.4,30.23,WSW,251,0.0,2.0,91,0.00,,,0.00,Wunderground v.1.15,2013-03-30 10:46:00,
2013-03-30 06:52:00,20.3,18.1,30.23,WSW,251,0.0,0.0,91,0.00,,,0.00,Wunderground v.1.15,2013-03-30 10:52:00,
2013-03-30 06:58:00,20.0,17.8,30.23,WSW,251,0.0,0.0,91,0.00,,,0.00,Wunderground v.1.15,2013-03-30 10:58:00,
2013-03-30 07:04:00,20.0,17.8,30.23,WSW,251,0.0,0.0,91,0.00,,,0.00,Wunderground v.1.15,2013-03-30 11:04:00,
2013-03-30 07:10:00,20.3,18.1,30.24,WSW,251,0.0,0.0,91,0.00,,,0.00,Wunderground v.1.15,2013-03-30 11:10:00,
2013-03-30 07:18:00,20.2,18.0,30.24,WSW,251,0.0,2.0,91,0.00,,,0.00,Wunderground v.1.15,2013-03-30 11:18:00,
2013-03-30 07:24:00,20.5,18.3,30.24,WSW,251,2.0,3.0,91,0.00,,,0.00,Wunderground v.1.15,2013-03-30 11:24:00,
2013-03-30 07:30:00,20.8,18.6,30.24,WSW,251,2.0,2.0,91,0.00,,,0.00,Wunderground v.1.15,2013-03-30 11:30:00,
2013-03-30 07:36:00,20.9,18.7,30.25,WSW,251,1.0,2.0,91,0.00,,,0.00,Wunderground v.1.15,2013-03-30 11:36:00,
2013-03-30 07:42:00,21.2,19.2,30.25,WSW,251,0.0,0.0,92,0.00,,,0.00,Wunderground v.1.15,2013-03-30 11:42:00,
2013-03-30 07:48:00,21.7,19.7,30.25,WSW,251,0.0,0.0,92,0.00,,,0.00,Wunderground v.1.15,2013-03-30 11:48:00,
2013-03-30 07:54:00,22.6,20.6,30.25,WSW,251,0.0,0.0,92,0.00,,,0.00,Wunderground v.1.15,2013-03-30 11:54:00,
2013-03-30 08:00:00,23.8,21.8,30.25,WSW,251,0.0,0.0,92,0.00,,,0.00,Wunderground v.1.15,2013-03-30 12:00:00,
2013-03-30 08:08:00,25.4,23.7,30.25,WSW,251,0.0,0.0,93,0.00,,,0.00,Wunderground v.1.15,2013-03-30 12:08:00,
2013-03-30 08:14:00,25.6,23.6,30.25,WSW,251,0.0,0.0,92,0.00,,,0.00,Wunderground v.1.15,2013-03-30 12:14:00,
2013-03-30 08:20:00,25.9,23.9,30.25,SW,215,0.0,2.0,92,0.00,,,0.00,Wunderground v.1.15,2013-03-30 12:20:00,
2013-03-30 08:26:00,26.6,24.6,30.25,SW,215,1.0,2.0,92,0.00,,,0.00,Wunderground v.1.15,2013-03-30 12:26:00,
2013-03-30 08:32:00,27.3,25.3,30.25,SW,215,2.0,2.0,92,0.00,,,0.00,Wunderground v.1.15,2013-03-30 12:32:00,
2013-03-30 08:38:00,28.0,25.7,30.25,SSW,201,3.0,4.0,91,0.00,,,0.00,Wunderground v.1.15,2013-03-30 12:38:00,
2013-03-30 08:44:00,28.8,26.0,30.25,SSW,201,4.0,4.0,89,0.00,,,0.00,Wunderground v.1.15,2013-03-30 12:44:00,
2013-03-30 08:52:00,30.2,27.1,30.25,SSW,213,1.0,2.0,88,0.00,,,0.00,Wunderground v.1.15,2013-03-30 12:52:00,
2013-03-30 08:58:00,31.2,27.8,30.25,SW,215,1.0,2.0,87,0.00,,,0.00,Wunderground v.1.15,2013-03-30 12:58:00,
2013-03-30 09:04:00,32.6,28.9,30.25,SW,234,2.0,3.0,86,0.00,,,0.00,Wunderground v.1.15,2013-03-30 13:04:00,
2013-03-30 09:10:00,34.0,29.7,30.25,South,188,3.0,5.0,84,0.00,,,0.00,Wunderground v.1.15,2013-03-30 13:10:00,
2013-03-30 09:18:00,35.2,29.0,30.25,South,188,5.0,8.0,78,0.00,,,0.00,Wunderground v.1.15,2013-03-30 13:18:00,
2013-03-30 09:24:00,35.6,29.7,30.25,SW,214,6.0,6.0,79,0.00,,,0.00,Wunderground v.1.15,2013-03-30 13:24:00,
2013-03-30 09:30:00,36.2,29.7,30.26,SSW,202,6.0,6.0,77,0.00,,,0.00,Wunderground v.1.15,2013-03-30 13:30:00,
2013-03-30 09:38:00,37.0,29.5,30.26,SW,228,5.0,7.0,74,0.00,,,0.00,Wunderground v.1.15,2013-03-30 13:38:00,
2013-03-30 09:44:00,37.7,29.8,30.26,SSW,202,5.0,7.0,73,0.00,,,0.00,Wunderground v.1.15,2013-03-30 13:44:00,
2013-03-30 09:50:00,38.4,29.5,30.26,SSW,192,5.0,8.0,70,0.00,,,0.00,Wunderground v.1.15,2013-03-30 13:50:00,
2013-03-30 09:56:00,39.3,30.3,30.26,SSW,200,6.0,8.0,70,0.00,,,0.00,Wunderground v.1.15,2013-03-30 13:56:00,
2013-03-30 10:02:00,40.2,30.1,30.26,South,189,4.0,5.0,67,0.00,,,0.00,Wunderground v.1.15,2013-03-30 14:02:00,
2013-03-30 10:08:00,41.2,29.9,30.26,SW,221,3.0,6.0,64,0.00,,,0.00,Wunderground v.1.15,2013-03-30 14:08:00,
2013-03-30 10:14:00,42.1,28.8,30.25,SSW,211,5.0,6.0,59,0.00,,,0.00,Wunderground v.1.15,2013-03-30 14:14:00,
2013-03-30 10:20:00,42.6,28.8,30.25,SSW,211,6.0,6.0,58,0.00,,,0.00,Wunderground v.1.15,2013-03-30 14:20:00,
2013-03-30 10:26:00,43.2,29.8,30.25,SW,219,5.0,6.0,59,0.00,,,0.00,Wunderground v.1.15,2013-03-30 14:26:00,
2013-03-30 10:32:00,43.8,29.1,30.25,SW,216,4.0,4.0,56,0.00,,,0.00,Wunderground v.1.15,2013-03-30 14:32:00,
2013-03-30 10:38:00,44.6,30.7,30.25,South,187,3.0,4.0,58,0.00,,,0.00,Wunderground v.1.15,2013-03-30 14:38:00,
2013-03-30 10:44:00,45.5,31.1,30.25,SSE,153,4.0,4.0,57,0.00,,,0.00,Wunderground v.1.15,2013-03-30 14:44:00,
2013-03-30 10:50:00,46.3,28.7,30.25,South,177,2.0,2.0,50,0.00,,,0.00,Wunderground v.1.15,2013-03-30 14:50:00,
2013-03-30 10:56:00,47.0,29.3,30.25,SSW,199,0.0,4.0,50,0.00,,,0.00,Wunderground v.1.15,2013-03-30 14:56:00,
2013-03-30 11:02:00,47.5,29.3,30.24,SE,140,2.0,2.0,49,0.00,,,0.00,Wunderground v.1.15,2013-03-30 15:02:00,
2013-03-30 11:08:00,47.4,27.1,30.24,SW,225,3.0,7.0,45,0.00,,,0.00,Wunderground v.1.15,2013-03-30 15:08:00,
2013-03-30 11:14:00,46.9,25.0,30.24,West,273,3.0,6.0,42,0.00,,,0.00,Wunderground v.1.15,2013-03-30 15:14:00,
2013-03-30 11:20:00,46.5,25.2,30.24,West,269,2.0,11.0,43,0.00,,,0.00,Wunderground v.1.15,2013-03-30 15:20:00,
2013-03-30 11:26:00,46.3,22.7,30.24,West,277,3.0,11.0,39,0.00,,,0.00,Wunderground v.1.15,2013-03-30 15:26:00,
2013-03-30 11:32:00,46.4,23.4,30.23,West,263,5.0,6.0,40,0.00,,,0.00,Wunderground v.1.15,2013-03-30 15:32:00,
2013-03-30 11:38:00,47.2,24.7,30.23,North,355,3.0,6.0,41,0.00,,,0.00,Wunderground v.1.15,2013-03-30 15:38:00,
2013-03-30 11:44:00,47.4,24.9,30.23,ENE,61,3.0,6.0,41,0.00,,,0.00,Wunderground v.1.15,2013-03-30 15:44:00,
2013-03-30 11:50:00,47.4,24.9,30.22,NW,304,6.0,9.0,41,0.00,,,0.00,Wunderground v.1.15,2013-03-30 15:50:00,
2013-03-30 11:58:00,47.5,21.8,30.22,NNW,342,5.0,9.0,36,0.00,,,0.00,Wunderground v.1.15,2013-03-30 15:58:00,
2013-03-30 12:04:00,47.4,24.3,30.22,NNE,31,4.0,5.0,40,0.00,,,0.00,Wunderground v.1.15,2013-03-30 16:04:00,
2013-03-30 12:11:00,47.5,24.3,30.22,North,355,5.0,6.0,40,0.00,,,0.00,Wunderground v.1.15,2013-03-30 16:11:00,
2013-03-30 12:18:00,47.4,20.4,30.22,West,267,5.0,5.0,34,0.00,,,0.00,Wunderground v.1.15,2013-03-30 16:18:00,
2013-03-30 12:24:00,48.2,21.1,30.22,WSW,244,5.0,6.0,34,0.00,,,0.00,Wunderground v.1.15,2013-03-30 16:24:00,
2013-03-30 12:30:00,48.3,20.5,30.21,SSW,209,5.0,6.0,33,0.00,,,0.00,Wunderground v.1.15,2013-03-30 16:30:00,
2013-03-30 12:36:00,48.5,24.0,30.21,NNE,18,3.0,4.0,38,0.00,,,0.00,Wunderground v.1.15,2013-03-30 16:36:00,
2013-03-30 12:42:00,48.5,25.2,30.21,NNE,28,5.0,6.0,40,0.00,,,0.00,Wunderground v.1.15,2013-03-30 16:42:00,
2013-03-30 12:48:00,48.8,25.5,30.21,North,11,6.0,9.0,40,0.00,,,0.00,Wunderground v.1.15,2013-03-30 16:48:00,
2013-03-30 12:54:00,48.7,26.0,30.20,North,355,4.0,5.0,41,0.00,,,0.00,Wunderground v.1.15,2013-03-30 16:54:00,
2013-03-30 13:00:00,48.8,24.9,30.20,North,5,4.0,5.0,39,0.00,,,0.00,Wunderground v.1.15,2013-03-30 17:00:00,
2013-03-30 13:08:00,49.1,24.6,30.20,NNW,338,4.0,5.0,38,0.00,,,0.00,Wunderground v.1.15,2013-03-30 17:08:00,
2013-03-30 13:14:00,49.6,21.6,30.19,WSW,249,3.0,8.0,33,0.00,,,0.00,Wunderground v.1.15,2013-03-30 17:14:00,
2013-03-30 13:20:00,50.6,23.2,30.19,WSW,243,4.0,8.0,34,0.00,,,0.00,Wunderground v.1.15,2013-03-30 17:20:00,
2013-03-30 13:26:00,51.8,23.6,30.19,SSW,197,5.0,8.0,33,0.00,,,0.00,Wunderground v.1.15,2013-03-30 17:26:00,
2013-03-30 13:32:00,51.6,21.1,30.18,WSW,248,7.0,8.0,30,0.00,,,0.00,Wunderground v.1.15,2013-03-30 17:32:00,
2013-03-30 13:38:00,51.4,23.2,30.18,SW,232,6.0,8.0,33,0.00,,,0.00,Wunderground v.1.15,2013-03-30 17:38:00,
2013-03-30 13:44:00,51.2,23.8,30.18,West,267,7.0,10.0,34,0.00,,,0.00,Wunderground v.1.15,2013-03-30 17:44:00,
2013-03-30 13:50:00,50.3,21.5,30.18,West,260,7.0,7.0,32,0.00,,,0.00,Wunderground v.1.15,2013-03-30 17:50:00,
2013-03-30 13:56:00,50.3,19.2,30.18,WNW,289,3.0,7.0,29,0.00,,,0.00,Wunderground v.1.15,2013-03-30 17:56:00,
2013-03-30 14:02:00,51.0,21.4,30.18,West,268,3.0,12.0,31,0.00,,,0.00,Wunderground v.1.15,2013-03-30 18:02:00,
2013-03-30 14:08:00,51.0,23.6,30.17,WNW,296,5.0,12.0,34,0.00,,,0.00,Wunderground v.1.15,2013-03-30 18:08:00,
2013-03-30 14:14:00,51.3,23.1,30.17,NW,306,5.0,9.0,33,0.00,,,0.00,Wunderground v.1.15,2013-03-30 18:14:00,
2013-03-30 14:20:00,50.5,21.7,30.17,NW,326,6.0,6.0,32,0.00,,,0.00,Wunderground v.1.15,2013-03-30 18:20:00,
2013-03-30 14:26:00,50.3,19.2,30.17,NE,49,4.0,6.0,29,0.00,,,0.00,Wunderground v.1.15,2013-03-30 18:26:00,
2013-03-30 14:32:00,51.4,20.2,30.17,ESE,107,3.0,3.0,29,0.00,,,0.00,Wunderground v.1.15,2013-03-30 18:32:00,
2013-03-30 14:38:00,52.1,20.8,30.17,West,275,4.0,6.0,29,0.00,,,0.00,Wunderground v.1.15,2013-03-30 18:38:00,
2013-03-30 14:44:00,50.8,20.4,30.16,WNW,300,6.0,8.0,30,0.00,,,0.00,Wunderground v.1.15,2013-03-30 18:44:00,
2013-03-30 14:50:00,52.3,26.1,30.16,WSW,254,5.0,5.0,36,0.00,,,0.00,Wunderground v.1.15,2013-03-30 18:50:00,
2013-03-30 14:56:00,53.1,22.4,30.15,West,261,5.0,10.0,30,0.00,,,0.00,Wunderground v.1.15,2013-03-30 18:56:00,
2013-03-30 15:02:00,52.1,19.1,30.15,West,276,7.0,8.0,27,0.00,,,0.00,Wunderground v.1.15,2013-03-30 19:02:00,
2013-03-30 15:08:00,51.3,20.9,30.15,WNW,298,6.0,9.0,30,0.00,,,0.00,Wunderground v.1.15,2013-03-30 19:08:00,
2013-03-30 15:14:00,52.1,19.9,30.16,WSW,258,4.0,8.0,28,0.00,,,0.00,Wunderground v.1.15,2013-03-30 19:14:00,
2013-03-30 15:20:00,51.8,17.0,30.15,West,275,4.0,4.0,25,0.00,,,0.00,Wunderground v.1.15,2013-03-30 19:20:00,
2013-03-30 15:28:00,51.3,19.3,30.16,NW,313,5.0,7.0,28,0.00,,,0.00,Wunderground v.1.15,2013-03-30 19:28:00,
2013-03-30 15:34:00,52.1,23.8,30.16,NW,313,4.0,8.0,33,0.00,,,0.00,Wunderground v.1.15,2013-03-30 19:34:00,
2013-03-30 15:40:00,51.8,19.7,30.15,WNW,290,5.0,13.0,28,0.00,,,0.00,Wunderground v.1.15,2013-03-30 19:40:00,
2013-03-30 15:46:00,52.0,15.3,30.15,West,265,5.0,13.0,23,0.00,,,0.00,Wunderground v.1.15,2013-03-30 19:46:00,
2013-03-30 15:52:00,52.4,20.2,30.15,WNW,299,6.0,12.0,28,0.00,,,0.00,Wunderground v.1.15,2013-03-30 19:52:00,
2013-03-30 15:58:00,52.1,22.3,30.15,WNW,298,10.0,12.0,31,0.00,,,0.00,Wunderground v.1.15,2013-03-30 19:58:00,
2013-03-30 16:04:00,52.3,20.9,30.15,WNW,292,8.0,13.0,29,0.00,,,0.00,Wunderground v.1.15,2013-03-30 20:04:00,
2013-03-30 16:10:00,53.2,19.2,30.14,WSW,242,6.0,6.0,26,0.00,,,0.00,Wunderground v.1.15,2013-03-30 20:10:00,
2013-03-30 16:16:00,52.8,22.2,30.14,NW,319,3.0,6.0,30,0.00,,,0.00,Wunderground v.1.15,2013-03-30 20:16:00,
2013-03-30 16:22:00,52.1,21.6,30.14,West,275,4.0,9.0,30,0.00,,,0.00,Wunderground v.1.15,2013-03-30 20:22:00,
2013-03-30 16:28:00,53.1,20.0,30.14,WNW,284,5.0,9.0,27,0.00,,,0.00,Wunderground v.1.15,2013-03-30 20:28:00,
2013-03-30 16:34:00,52.9,21.5,30.14,WNW,291,5.0,9.0,29,0.00,,,0.00,Wunderground v.1.15,2013-03-30 20:34:00,
2013-03-30 16:40:00,52.4,20.2,30.14,West,265,8.0,9.0,28,0.00,,,0.00,Wunderground v.1.15,2013-03-30 20:40:00,
2013-03-30 16:46:00,52.4,19.3,30.14,WNW,286,7.0,9.0,27,0.00,,,0.00,Wunderground v.1.15,2013-03-30 20:46:00,
2013-03-30 16:52:00,53.5,21.2,30.13,WSW,240,4.0,8.0,28,0.00,,,0.00,Wunderground v.1.15,2013-03-30 20:52:00,
2013-03-30 16:58:00,54.2,22.6,30.13,SSW,199,4.0,8.0,29,0.00,,,0.00,Wunderground v.1.15,2013-03-30 20:58:00,
2013-03-30 17:04:00,54.4,20.2,30.13,SSE,167,4.0,5.0,26,0.00,,,0.00,Wunderground v.1.15,2013-03-30 21:04:00,
2013-03-30 17:10:00,53.8,19.7,30.13,WSW,255,4.0,4.0,26,0.00,,,0.00,Wunderground v.1.15,2013-03-30 21:10:00,
2013-03-30 17:16:00,53.7,19.6,30.13,SW,221,5.0,6.0,26,0.00,,,0.00,Wunderground v.1.15,2013-03-30 21:16:00,
2013-03-30 17:22:00,54.0,21.6,30.13,West,269,3.0,5.0,28,0.00,,,0.00,Wunderground v.1.15,2013-03-30 21:22:00,
2013-03-30 17:28:00,54.2,22.6,30.13,WSW,242,5.0,8.0,29,0.00,,,0.00,Wunderground v.1.15,2013-03-30 21:28:00,
2013-03-30 17:34:00,54.3,21.0,30.12,South,190,4.0,5.0,27,0.00,,,0.00,Wunderground v.1.15,2013-03-30 21:34:00,
2013-03-30 17:40:00,54.0,21.6,30.12,WSW,238,4.0,4.0,28,0.00,,,0.00,Wunderground v.1.15,2013-03-30 21:40:00,
2013-03-30 17:46:00,53.6,19.5,30.13,SW,225,4.0,7.0,26,0.00,,,0.00,Wunderground v.1.15,2013-03-30 21:46:00,
2013-03-30 17:52:00,53.2,19.2,30.12,WSW,248,4.0,4.0,26,0.00,,,0.00,Wunderground v.1.15,2013-03-30 21:52:00,
2013-03-30 17:58:00,53.3,21.0,30.12,West,265,1.0,8.0,28,0.00,,,0.00,Wunderground v.1.15,2013-03-30 21:58:00,
2013-03-30 18:04:00,53.1,20.8,30.12,SSW,209,4.0,8.0,28,0.00,,,0.00,Wunderground v.1.15,2013-03-30 22:04:00,
2013-03-30 18:10:00,53.0,19.9,30.12,SW,234,5.0,7.0,27,0.00,,,0.00,Wunderground v.1.15,2013-03-30 22:10:00,
2013-03-30 18:16:00,52.5,21.1,30.12,WSW,241,5.0,7.0,29,0.00,,,0.00,Wunderground v.1.15,2013-03-30 22:16:00,
2013-03-30 18:22:00,52.3,20.1,30.11,SW,234,4.0,4.0,28,0.00,,,0.00,Wunderground v.1.15,2013-03-30 22:22:00,
2013-03-30 18:28:00,52.2,20.9,30.11,SW,232,3.0,4.0,29,0.00,,,0.00,Wunderground v.1.15,2013-03-30 22:28:00,
2013-03-30 18:34:00,51.7,20.4,30.11,SW,232,1.0,2.0,29,0.00,,,0.00,Wunderground v.1.15,2013-03-30 22:34:00,
2013-03-30 18:40:00,51.2,20.8,30.12,SW,232,0.0,0.0,30,0.00,,,0.00,Wunderground v.1.15,2013-03-30 22:40:00,
2013-03-30 18:46:00,50.7,21.1,30.11,WSW,246,1.0,3.0,31,0.00,,,0.00,Wunderground v.1.15,2013-03-30 22:46:00,
2013-03-30 18:52:00,50.3,20.0,30.12,SW,217,3.0,5.0,30,0.00,,,0.00,Wunderground v.1.15,2013-03-30 22:52:00,
2013-03-30 18:58:00,50.5,21.7,30.12,SW,229,3.0,5.0,32,0.00,,,0.00,Wunderground v.1.15,2013-03-30 22:58:00,
2013-03-30 19:04:00,50.0,21.3,30.12,SW,230,2.0,3.0,32,0.00,,,0.00,Wunderground v.1.15,2013-03-30 23:04:00,
2013-03-30 19:10:00,49.7,21.7,30.12,SW,230,1.0,1.0,33,0.00,,,0.00,Wunderground v.1.15,2013-03-30 23:10:00,
2013-03-30 19:18:00,49.2,21.3,30.12,SW,229,0.0,1.0,33,0.00,,,0.00,Wunderground v.1.15,2013-03-30 23:18:00,
2013-03-30 19:24:00,48.8,22.3,30.12,SW,229,0.0,0.0,35,0.00,,,0.00,Wunderground v.1.15,2013-03-30 23:24:00,
2013-03-30 19:30:00,47.8,22.1,30.12,SW,229,0.0,0.0,36,0.00,,,0.00,Wunderground v.1.15,2013-03-30 23:30:00,
2013-03-30 19:36:00,47.0,23.9,30.12,SW,229,1.0,2.0,40,0.00,,,0.00,Wunderground v.1.15,2013-03-30 23:36:00,
2013-03-30 19:42:00,45.6,24.4,30.13,SW,229,1.0,1.0,43,0.00,,,0.00,Wunderground v.1.15,2013-03-30 23:42:00,
2013-03-30 19:48:00,44.4,27.4,30.13,SW,229,0.0,2.0,51,0.00,,,0.00,Wunderground v.1.15,2013-03-30 23:48:00,
2013-03-30 19:54:00,43.2,27.7,30.13,SW,229,1.0,1.0,54,0.00,,,0.00,Wunderground v.1.15,2013-03-30 23:54:00,
2013-03-30 20:00:00,42.0,27.0,30.13,SW,229,0.0,0.0,55,0.00,,,0.00,Wunderground v.1.15,2013-03-31 00:00:00,
2013-03-30 20:08:00,41.0,27.8,30.12,SW,232,1.0,3.0,59,0.00,,,0.00,Wunderground v.1.15,2013-03-31 00:08:00,
2013-03-30 20:14:00,40.4,27.6,30.13,SW,232,1.0,1.0,60,0.00,,,0.00,Wunderground v.1.15,2013-03-31 00:14:00,
2013-03-30 20:20:00,39.7,27.7,30.13,SW,232,0.0,0.0,62,0.00,,,0.00,Wunderground v.1.15,2013-03-31 00:20:00,
2013-03-30 20:26:00,39.2,28.0,30.13,SW,232,0.0,0.0,64,0.00,,,0.00,Wunderground v.1.15,2013-03-31 00:26:00,
2013-03-30 20:32:00,38.7,28.3,30.13,SW,232,0.0,0.0,66,0.00,,,0.00,Wunderground v.1.15,2013-03-31 00:32:00,
2013-03-30 20:38:00,38.2,27.8,30.13,SW,232,0.0,2.0,66,0.00,,,0.00,Wunderground v.1.15,2013-03-31 00:38:00,
2013-03-30 20:44:00,37.7,27.7,30.13,SW,232,0.0,0.0,67,0.00,,,0.00,Wunderground v.1.15,2013-03-31 00:44:00,
2013-03-30 20:50:00,37.2,27.6,30.13,SW,232,0.0,0.0,68,0.00,,,0.00,Wunderground v.1.15,2013-03-31 00:50:00,
2013-03-30 20:56:00,36.9,27.7,30.13,SW,232,0.0,2.0,69,0.00,,,0.00,Wunderground v.1.15,2013-03-31 00:56:00,
2013-03-30 21:02:00,36.7,27.5,30.13,SW,232,0.0,0.0,69,0.00,,,0.00,Wunderground v.1.15,2013-03-31 01:02:00,
2013-03-30 21:08:00,36.2,27.0,30.13,SW,232,0.0,0.0,69,0.00,,,0.00,Wunderground v.1.15,2013-03-31 01:08:00,
2013-03-30 21:14:00,35.8,27.0,30.13,SW,232,0.0,0.0,70,0.00,,,0.00,Wunderground v.1.15,2013-03-31 01:14:00,
2013-03-30 21:20:00,35.5,27.4,30.13,SW,232,0.0,0.0,72,0.00,,,0.00,Wunderground v.1.15,2013-03-31 01:20:00,
2013-03-30 21:28:00,34.7,26.9,30.13,SW,232,0.0,0.0,73,0.00,,,0.00,Wunderground v.1.15,2013-03-31 01:28:00,
2013-03-30 21:34:00,34.3,26.5,30.13,SW,232,0.0,0.0,73,0.00,,,0.00,Wunderground v.1.15,2013-03-31 01:34:00,
2013-03-30 21:40:00,34.1,27.0,30.12,SW,232,0.0,0.0,75,0.00,,,0.00,Wunderground v.1.15,2013-03-31 01:40:00,
2013-03-30 21:48:00,33.8,27.4,30.13,SW,232,0.0,0.0,77,0.00,,,0.00,Wunderground v.1.15,2013-03-31 01:48:00,
2013-03-30 21:54:00,33.7,27.3,30.12,SW,232,0.0,0.0,77,0.00,,,0.00,Wunderground v.1.15,2013-03-31 01:54:00,
2013-03-30 22:00:00,33.4,27.3,30.13,SW,232,0.0,0.0,78,0.00,,,0.00,Wunderground v.1.15,2013-03-31 02:00:00,
2013-03-30 22:06:00,33.0,26.9,30.12,SW,232,0.0,0.0,78,0.00,,,0.00,Wunderground v.1.15,2013-03-31 02:06:00,
2013-03-30 22:12:00,32.9,27.1,30.12,SW,232,0.0,0.0,79,0.00,,,0.00,Wunderground v.1.15,2013-03-31 02:12:00,
2013-03-30 22:18:00,32.8,27.0,30.12,SW,232,0.0,0.0,79,0.00,,,0.00,Wunderground v.1.15,2013-03-31 02:18:00,
2013-03-30 22:24:00,32.1,25.7,30.12,SW,232,0.0,0.0,77,0.00,,,0.00,Wunderground v.1.15,2013-03-31 02:24:00,
2013-03-30 22:30:00,31.7,25.6,30.12,SW,232,0.0,0.0,78,0.00,,,0.00,Wunderground v.1.15,2013-03-31 02:30:00,
2013-03-30 22:36:00,31.4,25.6,30.12,SW,232,0.0,0.0,79,0.00,,,0.00,Wunderground v.1.15,2013-03-31 02:36:00,
2013-03-30 22:42:00,31.2,26.0,30.12,SW,232,0.0,0.0,81,0.00,,,0.00,Wunderground v.1.15,2013-03-31 02:42:00,
2013-03-30 22:48:00,31.0,26.4,30.11,SW,232,0.0,2.0,83,0.00,,,0.00,Wunderground v.1.15,2013-03-31 02:48:00,
2013-03-30 22:54:00,30.9,25.5,30.11,SW,232,1.0,2.0,80,0.00,,,0.00,Wunderground v.1.15,2013-03-31 02:54:00,
2013-03-30 23:00:00,30.7,25.6,30.11,SW,232,0.0,0.0,81,0.00,,,0.00,Wunderground v.1.15,2013-03-31 03:00:00,
2013-03-30 23:08:00,30.5,25.4,30.11,SW,232,0.0,0.0,81,0.00,,,0.00,Wunderground v.1.15,2013-03-31 03:08:00,
2013-03-30 23:14:00,30.2,25.1,30.11,SW,232,0.0,0.0,81,0.00,,,0.00,Wunderground v.1.15,2013-03-31 03:14:00,
2013-03-30 23:20:00,29.4,24.3,30.10,SW,236,0.0,3.0,81,0.00,,,0.00,Wunderground v.1.15,2013-03-31 03:20:00,
2013-03-30 23:28:00,28.8,24.6,30.11,WSW,238,0.0,3.0,84,0.00,,,0.00,Wunderground v.1.15,2013-03-31 03:28:00,
2013-03-30 23:34:00,28.5,24.6,30.11,WSW,238,0.0,2.0,85,0.00,,,0.00,Wunderground v.1.15,2013-03-31 03:34:00,
2013-03-30 23:40:00,28.9,25.0,30.11,WSW,238,2.0,2.0,85,0.00,,,0.00,Wunderground v.1.15,2013-03-31 03:40:00,
2013-03-30 23:46:00,29.0,24.5,30.11,WSW,238,2.0,2.0,83,0.00,,,0.00,Wunderground v.1.15,2013-03-31 03:46:00,
2013-03-30 23:52:00,29.0,24.5,30.11,SW,234,1.0,3.0,83,0.00,,,0.00,Wunderground v.1.15,2013-03-31 03:52:00,
2013-03-30 23:58:00,28.9,24.7,30.11,SW,229,3.0,4.0,84,0.00,,,0.00,Wunderground v.1.15,2013-03-31 03:58:00,